Flight Track Log - Related Links

Times and Time Zones

All times are in EDT time to prevent confusion due to time zone crossing. See the ASH9869 flight status page for this flight to view local times or setup timezone preferences in your user account.

Time Position Orientation Groundspeed Altitude Reporting Facility
EDT Latitude Longitude Course Direction KTS MPH feet Rate Location/Type
Tue 09:54:39 AM 42.9333 -78.7333 241° Southwest 139 160 1,600  Level Buffalo TRACON
Tue 09:55:57 AM 42.9000 -78.8167 241° Southwest 220 253 5,300 2,958 Climbing Buffalo TRACON
Tue 09:57:03 AM 42.9167 -78.9167 283° West 246 283 8,700 3,095 Climbing Buffalo TRACON
Tue 09:58:03 AM 42.9167 -79.0167 270° West 274 315 11,800 2,762 Climbing Buffalo TRACON
Tue 09:59:09 AM 42.9667 -79.1167 304° West 301 346 14,500 2,227 Climbing Buffalo TRACON
Tue 10:00:15 AM 43.0167 -79.2500 297° West 333 383 16,700 2,150 Climbing Buffalo TRACON
Tue 10:01:09 AM 43.0333 -79.3500 283° West 356 410 18,800 2,000 Climbing Buffalo TRACON
Tue 10:02:09 AM 43.0333 -79.4833 270° West 362 417 20,500 1,850 Climbing Buffalo TRACON
Tue 10:03:09 AM 43.0333 -79.6333 270° West 370 426 22,500 1,800 Climbing Buffalo TRACON
Tue 10:04:09 AM 43.0333 -79.7667 270° West 374 430 24,100 1,350 Climbing Buffalo TRACON
Tue 10:05:09 AM 43.0333 -79.9167 270° West 388 447 25,200 1,474 Climbing Buffalo TRACON
Tue 10:06:03 AM 43.0500 -80.0667 279° West 401 461 26,900 1,617 Climbing Buffalo TRACON
Tue 10:07:30 AM 43.0333 -80.2667 264° West 400 460 29,000 1,429 Climbing Toronto Center
Tue 10:08:30 AM 43.0333 -80.4167 270° West 390 449 30,400 1,500 Climbing Toronto Center
Tue 10:09:30 AM 43.0333 -80.5500 270° West 390 449 32,000 1,750 Climbing Toronto Center
Tue 10:10:30 AM 43.0333 -80.7000 270° West 380 437 33,900 1,000 Climbing Toronto Center
Tue 10:11:30 AM 43.0167 -80.8500 261° West 370 426 34,000 600 Climbing Toronto Center
Tue 10:12:30 AM 43.0167 -80.9833 270° West 370 426 35,100 1,000 Climbing Toronto Center
Tue 10:13:30 AM 43.0167 -81.1167 270° West 370 426 36,000 450 Climbing Toronto Center
Tue 10:14:30 AM 43.0500 -81.2833 285° West 380 437 36,000 250 Level Toronto Center
Tue 10:15:30 AM 43.0667 -81.4167 280° West 390 449 36,500 500 Climbing Toronto Center
Tue 10:16:30 AM 43.0833 -81.5500 280° West 400 460 37,000 550 Climbing Toronto Center
Tue 10:17:30 AM 43.1167 -81.7167 285° West 400 460 37,600 600 Climbing Toronto Center
Tue 10:18:30 AM 43.1333 -81.8500 280° West 390 449 38,200 650 Climbing Toronto Center
Tue 10:19:30 AM 43.1500 -82.0167 278° West 390 449 38,900 555 Climbing Toronto Center
Tue 10:21:23 AM 43.2236 -82.2558 293° West 394 453 39,800 377 Climbing Cleveland Center
Tue 10:22:25 AM 43.2703 -82.3914 295° West 397 457 40,000 98 Climbing Cleveland Center
Tue 10:23:26 AM 43.3175 -82.5300 295° West 399 459 40,000  Level Cleveland Center
Tue 10:24:28 AM 43.3736 -82.6939 295° West 399 459 40,000  Level Cleveland Center
Tue 10:25:30 AM 43.3897 -82.8389 279° West 389 448 40,000  Level Cleveland Center
Tue 10:26:32 AM 43.3969 -82.9833 274° West 387 445 40,000  Level Cleveland Center
Tue 10:27:30 AM 43.3500 -83.1167 244° Southwest 380 437 40,000  Level Toronto Center
Tue 10:28:30 AM 43.3000 -83.2500 243° Southwest 370 426 40,000  Level Toronto Center
Tue 10:29:37 AM 43.2797 -83.3739 257° West 370 426 40,000  Level Cleveland Center
Tue 10:30:39 AM 43.2381 -83.5008 246° West 368 423 40,000  Level Cleveland Center
Tue 10:31:41 AM 43.1892 -83.6517 246° West 365 420 40,000  Level Cleveland Center
Tue 10:32:43 AM 43.1486 -83.7783 246° West 365 420 40,000  Level Cleveland Center
Tue 10:33:45 AM 43.1075 -83.9031 246° West 364 419 40,000  Level Cleveland Center
Tue 10:34:46 AM 43.0661 -84.0303 246° West 365 420 40,000  Level Cleveland Center
Tue 10:35:48 AM 43.0236 -84.1592 246° West 369 425 40,000 -484 Level Cleveland Center
Tue 10:36:50 AM 42.9733 -84.3150 246° West 373 429 39,000 -2,177 Descending Cleveland Center
Tue 10:37:52 AM 42.9294 -84.4475 246° West 376 433 35,500 -3,339 Descending Cleveland Center
Tue 10:38:54 AM 42.8867 -84.5839 247° West 392 451 32,100 -1,694 Descending Cleveland Center
Tue 10:39:56 AM 42.8686 -84.7392 261° West 415 478 32,000 -48 Descending Cleveland Center
Tue 10:40:58 AM 42.8531 -84.8975 262° West 417 480 32,000  Level Cleveland Center
Tue 10:42:00 AM 42.8344 -85.0608 261° West 432 497 32,000 48 Level Cleveland Center
Tue 10:43:02 AM 42.8181 -85.2192 262° West 425 489 32,100 48 Climbing Cleveland Center
Tue 10:44:05 AM 42.7964 -85.4075 261° West 423 487 32,100 -48 Level Cleveland Center
Tue 10:45:07 AM 42.7744 -85.5650 259° West 422 486 32,000 -1,355 Descending Cleveland Center
Tue 10:46:09 AM 42.7475 -85.7183 257° West 417 480 29,300 -2,758 Descending Cleveland Center
Tue 10:47:11 AM 42.7200 -85.8697 256° West 409 471 26,300 -2,758 Descending Cleveland Center
Tue 10:48:13 AM 42.6925 -86.0222 256° West 413 475 23,600 -2,516 Descending Cleveland Center
Tue 10:49:15 AM 42.6667 -86.1636 256° West 389 448 21,100 -1,742 Descending Cleveland Center
Tue 10:50:17 AM 42.6417 -86.2944 255° West 361 415 20,000 -455 Descending Cleveland Center
Tue 10:51:40 AM 42.6072 -86.4817 256° West 360 414 20,000 -414 Level Chicago Center
Tue 10:52:42 AM 42.5817 -86.6183 256° West 373 429 19,000 -1,935 Descending Chicago Center
Tue 10:53:44 AM 42.5497 -86.7708 254° West 357 411 16,000 -2,661 Descending Chicago Center
Tue 10:54:46 AM 42.5167 -86.8894 249° West 344 396 13,500 -2,419 Descending Chicago Center
Tue 10:55:48 AM 42.4847 -87.0039 249° West 331 381 11,000 -1,645 Descending Chicago Center
Tue 10:56:50 AM 42.4583 -87.0981 249° West 268 308 10,100 -919 Descending Chicago Center
Tue 10:57:52 AM 42.4339 -87.1892 250° West 262 302 9,100 -532 Descending Chicago Center
Tue 10:58:54 AM 42.3603 -87.2247 200° South 293 337 9,000 -48 Descending Chicago Center
Tue 10:59:56 AM 42.2647 -87.2500 191° South 296 341 9,000 -629 Level Chicago Center
Tue 11:00:58 AM 42.1836 -87.2883 199° South 288 331 7,700 -1,210 Descending Chicago Center
Tue 11:02:00 AM 42.1133 -87.3342 206° Southwest 286 329 6,500 -878 Descending Chicago Center
Tue 11:03:01 AM 42.0494 -87.3922 214° Southwest 279 321 5,900 -732 Descending Chicago Center
Tue 11:04:03 AM 42.0017 -87.4747 232° Southwest 263 303 5,000 -435 Descending Chicago Center
Tue 11:05:05 AM 41.9822 -87.5503 251° West 221 254 5,000 -339 Level Chicago Center
Tue 11:06:07 AM 41.9814 -87.6367 269° West 218 251 4,300 -871 Descending Chicago Center
Tue 11:07:09 AM 41.9836 -87.7119 272° West 208 239 3,200 -968 Descending Chicago Center
Tue 11:08:11 AM 41.9828 -87.7775 269° West 183 211 2,300 -823 Descending Chicago Center
Tue 11:09:13 AM 41.9833 -87.8358 271° West 144 166 1,500 -726 Descending Chicago Center
Tue 11:10:15 AM 41.9828 -87.8822 269° West 130 150 800 -677 Descending Chicago Center

Login

Don't have an account? Register now (free) for customized features, flight alerts, and more!